Weather History for Melbourne, FL

Change the Weather History Date:

Friday, September 6, 2013

  Actual Average Record
Temperature  
Mean Temperature 83 °F 81 °F  
Max Temperature 90 °F 89 °F 95 °F (1962)
Min Temperature 76 °F 73 °F 67 °F (1976)
Degree Days  
Heating Degree Days 0 0  
Month to date heating degree days 0 0  
Since 1 July heating degree days 0 0  
Cooling Degree Days 18 16  
Month to date cooling degree days 103 96  
Year to date cooling degree days 2552 2322  
Growing Degree Days 32 (Base 50)    
Moisture  
Dew Point 75 °F    
Average Humidity 80    
Maximum Humidity 100    
Minimum Humidity 59    
Precipitation  
Precipitation 0.04 in 0.24 in 1.93 in (2010)
Month to date precipitation 0.81 1.51  
Year to date precipitation 32.00 35.36  
Sea Level Pressure  
Sea Level Pressure 30.02 in    
Wind  
Wind Speed 6 mph (NE)    
Max Wind Speed 17 mph    
Max Gust Speed 22 mph    
Visibility 10 miles    
Events Rain , Thunderstorm    
T = Trace of Precipitation, MM = Missing Value Source: NWS Daily Summary

Daily Weather History Graph

Daily Weather History Graph

Search for Another Location

Airport:

Trip Planner

Search our weather history database for the weather conditions in past years. The results will help you decide how hot, cold, wet, or windy it might be!

Date:

Astronomy

Sep. 06, 2013 Rise Set
Actual Time 7:03 AM EDT 7:37 PM EDT
Civil Twilight 6:39 AM EDT 8:01 PM EDT
Nautical Twilight 6:12 AM EDT 8:29 PM EDT
Astronomical Twilight 5:43 AM EDT 8:57 PM EDT
Moon 8:03 AM EDT (9/6) 8:14 PM EDT (9/6)
Length of Visible Light 13h 21m
Length of Day
12h 33m
New Moon, 1% of the Moon is Illuminated
Sep 6
New Moon
Sep 12
First Quarter
Sep 19
Full
Sep 26
Last Quarter
Oct 4
New

Hourly Weather History & Observations

Time (EDT) Temp. Heat Index Dew Point Humidity Pressure Visibility Wind Dir Wind Speed Gust Speed Precip Events Conditions
12:53 AM 82.0 °F 89.4 °F 75.9 °F 82% 30.05 in 10.0 mi Calm Calm - N/A   Clear
1:53 AM 82.0 °F 89.4 °F 75.9 °F 82% 30.04 in 10.0 mi East 4.6 mph - N/A   Partly Cloudy
2:53 AM 82.0 °F 89.4 °F 75.9 °F 82% 30.03 in 10.0 mi ESE 4.6 mph - N/A   Clear
3:53 AM 80.1 °F 85.4 °F 75.9 °F 87% 30.02 in 10.0 mi Calm Calm - N/A   Clear
4:53 AM 77.0 °F - 75.0 °F 94% 30.02 in 10.0 mi Calm Calm - N/A   Clear
5:53 AM 75.9 °F - 73.9 °F 94% 30.03 in 10.0 mi WNW 4.6 mph - N/A   Clear
6:53 AM 75.9 °F - 75.0 °F 97% 30.04 in 10.0 mi NW 3.5 mph - N/A   Partly Cloudy
7:53 AM 79.0 °F - 77.0 °F 94% 30.04 in 10.0 mi Calm Calm - N/A   Clear
8:53 AM 84.0 °F 94.8 °F 78.1 °F 82% 30.05 in 10.0 mi Calm Calm - N/A   Partly Cloudy
9:23 AM 84.2 °F 92.3 °F 75.2 °F 74% 30.05 in 10.0 mi ENE 4.6 mph - N/A   Scattered Clouds
9:53 AM 86.0 °F 96.0 °F 75.9 °F 72% 30.05 in 10.0 mi Calm Calm - N/A   Scattered Clouds
10:53 AM 87.1 °F 96.3 °F 75.0 °F 67% 30.06 in 10.0 mi ENE 6.9 mph - N/A   Scattered Clouds
11:53 AM 88.0 °F 97.5 °F 75.0 °F 65% 30.06 in 10.0 mi East 8.1 mph - N/A   Scattered Clouds
12:53 PM 88.0 °F 95.6 °F 73.0 °F 61% 30.04 in 10.0 mi East 8.1 mph - N/A   Scattered Clouds
1:53 PM 89.1 °F 97.0 °F 73.0 °F 59% 30.01 in 10.0 mi ENE 9.2 mph - N/A   Scattered Clouds
2:53 PM 89.1 °F 98.0 °F 73.9 °F 61% 30.01 in 10.0 mi East 11.5 mph - N/A Thunderstorm Scattered Clouds
3:53 PM 84.9 °F 93.3 °F 75.0 °F 72% 29.99 in 10.0 mi ENE 15.0 mph - N/A Thunderstorm Clear
4:53 PM 82.9 °F 90.2 °F 75.0 °F 77% 30.01 in 10.0 mi ENE 13.8 mph - N/A   Scattered Clouds
5:44 PM 82.4 °F 89.5 °F 75.2 °F 79% 30.01 in 10.0 mi ENE 11.5 mph - N/A   Partly Cloudy
5:53 PM 82.0 °F 87.9 °F 73.9 °F 76% 30.00 in 10.0 mi NE 9.2 mph - N/A Rain , Thunderstorm Light Rain
6:53 PM 79.0 °F - 75.0 °F 88% 29.97 in 9.0 mi North 3.5 mph - 0.01 in Rain , Thunderstorm Light Rain
7:53 PM 79.0 °F - 75.9 °F 90% 29.99 in 10.0 mi West 5.8 mph - 0.03 in Rain Light Rain
8:53 PM 79.0 °F - 77.0 °F 94% 30.00 in 10.0 mi North 5.8 mph - 0.00 in   Partly Cloudy
9:53 PM 78.1 °F - 75.9 °F 93% 29.99 in 10.0 mi NNW 4.6 mph - N/A   Clear
10:53 PM 78.1 °F - 75.9 °F 93% 30.01 in 10.0 mi West 4.6 mph - N/A   Scattered Clouds
11:53 PM 77.0 °F - 75.0 °F 94% 30.01 in 10.0 mi WNW 3.5 mph - N/A   Clear